FW3671 Weather Reports


Display with metric or nautical units.
time (UTC)temp
F
wind
direction
speed
MPH
gust
MPH
rain 1hr
in
rain 24hr
in
rain mn
in
humidity
%
barometer
mb
20260503232116 74 298 0.0 3.0 0.00 0.00 0.00 16 1012.2
20260503231614 74 295 0.0 5.0 0.00 0.00 0.00 14 1012.2
20260503231110 74 144 3.0 5.0 0.00 0.00 0.00 15 1012.0
20260503230608 74 147 3.0 7.0 0.00 0.00 0.00 15 1012.0
20260503230104 74 99 6.0 9.0 0.00 0.00 0.00 16 1012.0
20260503225602 74 160 3.0 4.0 0.00 0.00 0.00 16 1012.4
20260503225056 74 78 2.0 4.0 0.00 0.00 0.00 17 1012.3
20260503224554 74 353 0.0 5.0 0.00 0.00 0.00 17 1012.3
20260503224052 74 206 1.0 4.0 0.00 0.00 0.00 17 1012.4
20260503223550 74 180 4.0 5.0 0.00 0.00 0.00 16 1012.2
20260503223045 74 182 2.0 9.0 0.00 0.00 0.00 16 1012.6
20260503222543 74 38 1.0 10.0 0.00 0.00 0.00 15 1012.4
20260503222041 74 118 0.0 9.0 0.00 0.00 0.00 16 1012.5
20260503221539 75 143 6.0 11.0 0.00 0.00 0.00 16 1012.6
20260503221036 75 158 9.0 13.0 0.00 0.00 0.00 16 1012.9
20260503220532 75 278 2.0 4.0 0.00 0.00 0.00 18 1012.7
20260503220029 75 118 4.0 8.0 0.00 0.00 0.00 17 1013.0
20260503215526 74 96 6.0 10.0 0.00 0.00 0.00 15 1013.3
20260503215023 74 107 6.0 12.0 0.00 0.00 0.00 15 1013.2
20260503214522 75 117 5.0 16.0 0.00 0.00 0.00 15 1013.4
20260503214018 75 174 6.0 17.0 0.00 0.00 0.00 15 1013.8
20260503213516 76 80 3.0 9.0 0.00 0.00 0.00 16 1013.8
20260503213013 76 78 8.0 12.0 0.00 0.00 0.00 14 1013.6
20260503212510 77 158 12.0 13.0 0.00 0.00 0.00 17 1013.8
20260503212008 77 105 5.0 15.0 0.00 0.00 0.00 15 1013.6
20260503211504 77 117 4.0 17.0 0.00 0.00 0.00 13 1013.8
20260503211000 76 151 4.0 9.0 0.00 0.00 0.00 15 1014.0
20260503210457 76 117 7.0 15.0 0.00 0.00 0.00 14 1014.2
20260503205957 75 131 3.0 11.0 0.00 0.00 0.00 16 1014.1
20260503205454 75 116 9.0 18.0 0.00 0.00 0.00 15 1014.4
20260503204950 75 176 3.0 19.0 0.00 0.00 0.00 17 1014.5
20260503204448 76 137 6.0 12.0 0.00 0.00 0.00 16 1014.2
20260503203944 76 144 7.0 16.0 0.00 0.00 0.00 16 1014.6
20260503203442 76 96 6.0 11.0 0.00 0.00 0.00 17 1014.6
20260503202939 75 160 2.0 12.0 0.00 0.00 0.00 16 1014.6
20260503202437 75 119 8.0 12.0 0.00 0.00 0.00 16 1014.8
20260503201935 75 126 12.0 18.0 0.00 0.00 0.00 18 1014.8
20260503201432 76 70 2.0 6.0 0.00 0.00 0.00 17 1015.2
20260503200930 76 170 7.0 18.0 0.00 0.00 0.00 17 1015.1
20260503200426 76 129 9.0 11.0 0.00 0.00 0.00 16 1015.1
20260503195922 75 108 10.0 12.0 0.00 0.00 0.00 17 1015.2
20260503195420 75 120 4.0 14.0 0.00 0.00 0.00 17 1015.3
20260503194916 76 177 8.0 18.0 0.00 0.00 0.00 17 1015.4
20260503194413 76 157 9.0 14.0 0.00 0.00 0.00 18 1015.3
20260503193909 76 135 5.0 11.0 0.00 0.00 0.00 18 1015.5
20260503193404 75 101 10.0 11.0 0.00 0.00 0.00 18 1015.6
20260503192900 75 162 8.0 12.0 0.00 0.00 0.00 17 1015.5
20260503192356 75 116 6.0 15.0 0.00 0.00 0.00 17 1015.7
20260503191853 75 105 7.0 15.0 0.00 0.00 0.00 17 1015.9
20260503191350 74 116 12.0 17.0 0.00 0.00 0.00 21 1015.6
20260503190846 74 181 9.0 16.0 0.00 0.00 0.00 20 1016.0
20260503190344 73 134 6.0 18.0 0.00 0.00 0.00 19 1016.2
20260503185841 73 125 10.0 15.0 0.00 0.00 0.00 20 1016.2
20260503185337 73 112 5.0 9.0 0.00 0.00 0.00 21 1016.1
20260503184836 72 101 10.0 17.0 0.00 0.00 0.00 20 1016.2
20260503184333 71 133 7.0 10.0 0.00 0.00 0.00 19 1016.4
20260503183829 71 137 6.0 19.0 0.00 0.00 0.00 19 1016.2
20260503183326 70 146 4.0 14.0 0.00 0.00 0.00 21 1016.4
20260503182823 70 133 10.0 12.0 0.00 0.00 0.00 21 1016.4
20260503182323 71 161 7.0 14.0 0.00 0.00 0.00 20 1016.4
20260503181819 71 220 3.0 11.0 0.00 0.00 0.00 23 1016.6
20260503181316 72 142 15.0 21.0 0.00 0.00 0.00 19 1016.6
20260503180813 73 189 4.0 11.0 0.00 0.00 0.00 22 1016.7
20260503180311 73 161 11.0 16.0 0.00 0.00 0.00 19 1016.8
20260503175807 74 166 13.0 13.0 0.00 0.00 0.00 20 1016.8
20260503175305 73 149 14.0 16.0 0.00 0.00 0.00 22 1016.7
20260503174800 73 122 7.0 17.0 0.00 0.00 0.00 20 1016.8
20260503174259 73 158 11.0 22.0 0.00 0.00 0.00 19 1016.9
20260503173754 73 123 6.0 13.0 0.00 0.00 0.00 20 1016.8
20260503173250 73 98 9.0 17.0 0.00 0.00 0.00 21 1016.8
20260503172747 72 149 5.0 13.0 0.00 0.00 0.00 22 1017.1
20260503172244 71 138 8.0 20.0 0.00 0.00 0.00 22 1017.0
20260503171740 72 130 9.0 16.0 0.00 0.00 0.00 21 1017.1
20260503171238 72 142 14.0 14.0 0.00 0.00 0.00 23 1017.3
20260503170735 71 173 6.0 17.0 0.00 0.00 0.00 22 1017.0
20260503170231 71 146 11.0 19.0 0.00 0.00 0.00 21 1017.0
20260503160153 69 149 11.0 18.0 0.00 0.00 0.00 21 1017.1
20260503150623 62 146 14.0 18.0 0.00 0.00 0.00 25 1017.5
20260503150120 62 151 11.0 19.0 0.00 0.00 0.00 24 1017.6
20260503131013 53 125 4.0 4.0 0.00 0.00 0.00 34 1017.0
20260503130511 55 126 2.0 3.0 0.00 0.00 0.00 31 1016.7
20260503110407 56 161 4.0 9.0 0.00 0.00 0.00 26 1017.5
20260503090257 59 143 9.0 13.0 0.00 0.00 0.00 23 1017.3
20260503081231 56 128 8.0 12.0 0.00 0.00 0.00 26 1017.7
20260503080726 57 135 11.0 13.0 0.00 0.00 0.00 26 1017.8
20260503080224 57 127 6.0 9.0 0.00 0.00 0.00 25 1017.8
20260503072700 55 117 7.0 11.0 0.00 0.00 0.00 28 1017.9
20260503072157 55 133 6.0 8.0 0.00 0.00 0.00 31 1017.9
20260503071654 55 112 6.0 8.0 0.00 0.00 0.00 30 1017.7
20260503071150 55 111 5.0 8.0 0.00 0.00 0.00 30 1017.7
20260503070647 55 116 8.0 10.0 0.00 0.00 0.00 30 1017.9
20260503070146 56 131 9.0 12.0 0.00 0.00 0.00 30 1017.8
20260503060110 56 127 11.0 14.0 0.00 0.00 0.00 31 1017.8
20260503055101 57 150 6.0 10.0 0.00 0.00 0.00 31 1017.8
20260503054557 56 129 8.0 10.0 0.00 0.00 0.00 31 1017.8
20260503054054 56 133 8.0 10.0 0.00 0.00 0.00 31 1017.8
20260503053552 57 164 5.0 7.0 0.00 0.00 0.00 32 1017.8
20260503053050 56 150 4.0 9.0 0.00 0.00 0.00 31 1017.9
20260503052547 56 134 12.0 14.0 0.00 0.00 0.00 30 1017.9
20260503052043 57 134 11.0 12.0 0.00 0.00 0.00 30 1017.9
20260503051538 57 137 7.0 11.0 0.00 0.00 0.00 30 1017.8
20260503051036 57 135 11.0 12.0 0.00 0.00 0.00 30 1017.7
20260503050531 57 133 8.0 11.0 0.00 0.00 0.00 30 1017.8
20260503050029 57 132 8.0 9.0 0.00 0.00 0.00 31 1017.7
20260503045526 57 151 4.0 9.0 0.00 0.00 0.00 30 1017.9
20260503045024 58 127 7.0 8.0 0.00 0.00 0.00 30 1018.1
20260503044520 58 130 4.0 9.0 0.00 0.00 0.00 31 1017.9
20260503044018 58 142 7.0 10.0 0.00 0.00 0.00 30 1017.9
20260503043514 58 126 7.0 10.0 0.00 0.00 0.00 29 1017.8
20260503043010 58 134 8.0 9.0 0.00 0.00 0.00 30 1017.8
20260503042507 58 146 6.0 9.0 0.00 0.00 0.00 30 1018.1
20260503042003 58 132 6.0 8.0 0.00 0.00 0.00 29 1017.9
20260503041500 59 132 7.0 9.0 0.00 0.00 0.00 30 1017.8
20260503040959 59 131 8.0 11.0 0.00 0.00 0.00 29 1017.8
20260503040455 59 128 8.0 11.0 0.00 0.00 0.00 28 1017.8
20260503035952 60 136 5.0 8.0 0.00 0.00 0.00 29 1017.9
20260503035449 60 132 7.0 9.0 0.00 0.00 0.00 28 1018.1
20260503034947 60 127 4.0 4.0 0.00 0.00 0.00 30 1017.8
20260503034444 60 205 3.0 3.0 0.00 0.00 0.00 30 1017.7
20260503033941 60 209 4.0 4.0 0.00 0.00 0.00 29 1017.7
20260503033438 60 191 3.0 4.0 0.00 0.00 0.00 30 1017.6
20260503032936 60 195 2.0 4.0 0.00 0.00 0.00 29 1017.7
20260503032435 60 226 4.0 6.0 0.00 0.00 0.00 28 1017.4
20260503031932 61 176 3.0 4.0 0.00 0.00 0.00 29 1017.4
20260503031430 60 29 2.0 2.0 0.00 0.00 0.00 29 1017.4
20260503030926 61 189 1.0 4.0 0.00 0.00 0.00 30 1017.6
20260503030423 61 139 0.0 2.0 0.00 0.00 0.00 30 1017.4
20260503025919 61 344 2.0 2.0 0.00 0.00 0.00 29 1017.3
20260503025416 61 236 2.0 3.0 0.00 0.00 0.00 29 1017.4
20260503024914 62 245 3.0 4.0 0.00 0.00 0.00 30 1017.5
20260503024410 62 232 3.0 3.0 0.00 0.00 0.00 29 1017.4
20260503023908 62 183 2.0 3.0 0.00 0.00 0.00 30 1017.4
20260503023405 62 183 1.0 4.0 0.00 0.00 0.00 29 1017.5
20260503022902 63 145 2.0 3.0 0.00 0.00 0.00 29 1017.3
20260503022401 63 190 2.0 3.0 0.00 0.00 0.00 28 1017.3
20260503021858 64 152 1.0 2.0 0.00 0.00 0.00 28 1017.3
20260503021354 64 190 0.0 2.0 0.00 0.00 0.00 27 1017.4
20260503020852 65 45 2.0 3.0 0.00 0.00 0.00 25 1017.4
20260503020350 66 2 3.0 6.0 0.00 0.00 0.00 23 1017.4
20260503015846 66 343 3.0 6.0 0.00 0.00 0.00 23 1017.3
20260503015343 67 7 6.0 11.0 0.00 0.00 0.00 23 1017.1
20260503014838 67 354 5.0 10.0 0.00 0.00 0.00 22 1017.4
20260503014337 68 10 5.0 7.0 0.00 0.00 0.00 23 1017.4
20260503013834 69 338 3.0 8.0 0.00 0.00 0.00 22 1017.5
20260503013331 69 343 3.0 7.0 0.00 0.00 0.00 21 1016.9
20260503012828 69 0 6.0 7.0 0.00 0.00 0.00 21 1017.3
20260503012326 68 308 6.0 16.0 0.00 0.00 0.00 20 1017.1
20260503011822 69 327 11.0 12.0 0.00 0.00 0.00 20 1017.3
20260503011319 69 323 4.0 7.0 0.00 0.00 0.00 18 1017.0
20260503010815 70 315 3.0 3.0 0.00 0.00 0.00 17 1017.0
20260503010313 69 29 1.0 1.0 0.00 0.00 0.00 16 1017.0
20260503005809 69 144 2.0 4.0 0.00 0.00 0.00 15 1016.8
20260503005307 70 155 2.0 4.0 0.00 0.00 0.00 16 1017.1
20260503004803 70 170 2.0 2.0 0.00 0.00 0.00 16 1017.1
20260503004301 71 207 2.0 5.0 0.00 0.00 0.00 15 1017.4
20260503003758 71 159 6.0 7.0 0.00 0.00 0.00 14 1016.9
20260503003255 72 204 3.0 6.0 0.00 0.00 0.00 15 1017.0
20260503002751 73 189 5.0 6.0 0.00 0.00 0.00 15 1016.9
20260503002248 74 192 4.0 7.0 0.00 0.00 0.00 13 1016.9
20260503001744 77 200 6.0 9.0 0.00 0.00 0.00 13 1017.0
20260503001241 78 176 3.0 7.0 0.00 0.00 0.00 12 1017.0
20260503000739 78 172 6.0 10.0 0.00 0.00 0.00 12 1017.3
20260503000236 79 33 3.0 6.0 0.00 0.00 0.00 13 1017.0
20260502235733 78 227 4.0 5.0 0.00 0.00 0.00 13 1017.1
20260502235231 77 95 2.0 11.0 0.00 0.00 0.00 13 1017.4
20260502234727 77 117 7.0 10.0 0.00 0.00 0.00 14 1017.3
20260502234225 77 130 7.0 7.0 0.00 0.00 0.00 13 1017.4
20260502233720 77 244 0.0 4.0 0.00 0.00 0.00 13 1017.3
20260502233217 75 172 5.0 12.0 0.00 0.00 0.00 13 1017.3
20260502232712 75 80 2.0 2.0 0.00 0.00 0.00 12 1017.3
20260502232210 75 120 7.0 12.0 0.00 0.00 0.00 10 1017.3